User: anonymous   Login
Location: Innerarity Island Observatory
(30.3139°N, 87.4867°W)
Time: 02:21:38
(UTC-05:00)
Language:

OPAL - Orbit

View from above orbital plane
View from above orbital plane
View from above satellite
View from above satellite

Ground track
Ground track

The orbit data is extracted from the following two-line orbital elements,

1 26063U 00004C   16242.82760775  .00000015  00000-0  24952-4 0  9990
2 26063 100.1921 186.6477 0037128  50.5585 309.8871 14.36629092869552
Epoch (UTC): 29 August 2016 19:51:45
Eccentricity: 0.0037128
inclination: 100.1921°
perigee height: 743 km
apogee height: 796 km
right ascension of ascending node: 186.6477°
argument of perigee: 50.5585°
revolutions per day: 14.36629092
mean anomaly at epoch: 309.8871°
orbit number at epoch: 86955

The dashed part of the orbit path shows where the satellite is in the earth's shadow,  

DLR